Temp_Advection
nan nan nan nan nan nan nan nan nan nan nan nan nan nan nan nan nan nan nan nan nan nan
nan -0 -0 0 -0 -0 -0 -1 -1 -1 -0 -0 -0 -0 -0 -1 -0 -0 -0 -0 -1 nan
nan -0 -0 -0 -1 -1 -1 -1 -1 -1 -1 -1 -0 -0 0 -0 -1 -0 -0 -0 -0 nan
nan -0 -0 -0 -1 -1 -1 -0 -0 -0 -1 -1 -1 -1 -0 -0 -0 -0 -0 0 0 nan
nan -0 0 0 0 -0 -0 -0 -0 -0 -1 -1 -1 -1 -1 -1 -0 -0 -0 -0 -0 nan
nan -0 -0 -0 0 0 -0 -0 -0 0 0 -0 -0 -1 -1 -1 -1 -1 -0 -0 -0 nan
nan 0 -0 -0 -0 -0 -0 -0 -1 -1 -0 -0 -0 -0 -0 -1 -1 -1 -1 -1 -0 nan
nan 0 -0 0 0 0 -0 -0 -0 -0 -1 -0 -0 -0 -0 -0 -0 -0 -0 -1 -0 nan
nan -0 -0 0 0 0 0 -0 -0 -0 -0 -0 -0 -0 -0 -0 -0 -0 -0 -1 -0 nan
nan 0 0 0 0 0 -0 -0 -0 -0 -0 -0 -0 -0 -0 -0 -0 -0 -0 -0 -0 nan
nan 0 0 0 0 0 0 -0 -0 -0 -0 -0 -0 -1 -1 -0 -0 -0 -0 0 0 nan
nan 0 0 0 0 0 0 -0 -0 -0 -0 -0 -0 -0 -1 -0 -0 -0 -0 -0 -0 nan
nan 0 -0 0 0 0 0 0 0 0 0 0 0 0 -0 -0 -0 -0 -0 -0 -0 nan
nan nan nan nan nan nan nan nan nan nan nan nan nan nan nan nan nan nan nan nan nan nan
Wind_Speed
15 15 17 17 17 17 18 17 18 20 21 22 21 23 24 23 24 26 28 30 31 32
16 18 19 16 16 16 17 17 18 19 18 19 19 18 18 19 21 21 23 24 26 28
16 15 16 17 18 19 18 20 20 18 16 16 16 17 17 17 19 15 17 21 22 25
16 16 17 17 18 18 18 15 13 12 13 14 16 13 9 13 16 9 10 10 10 9
16 16 16 15 15 15 16 17 17 16 15 13 13 13 11 10 11 12 11 4 2 2
15 17 17 17 16 15 14 14 14 17 18 16 15 15 14 13 12 11 9 11 9 8
14 16 17 17 17 17 16 16 15 15 14 15 15 14 13 13 12 11 11 9 8 9
13 14 15 16 16 17 17 17 16 14 13 13 13 12 9 10 10 8 8 7 6 7
12 13 14 15 15 17 17 15 13 12 11 11 11 10 8 7 9 10 9 8 7 6
11 13 14 16 17 16 15 13 12 10 9 8 8 9 8 8 8 9 8 9 9 9
11 12 14 15 16 15 13 11 9 8 8 9 9 9 9 9 9 9 8 8 9 10
11 11 13 13 14 13 11 9 8 7 7 7 7 9 10 8 8 8 8 8 8 8
11 11 12 13 13 12 10 8 7 7 7 7 7 5 7 11 10 8 8 8 8 7
11 11 11 12 11 10 9 8 8 7 7 7 8 9 9 9 13 14 13 11 10 9
Wind_Direction
356 357 353 350 346 335 330 331 326 318 311 306 303 300 297 290 286 280 276 269 267 267
357 357 352 349 342 331 328 326 322 317 323 322 319 316 313 312 310 294 280 274 272 270
3 357 349 347 346 343 340 339 334 333 328 328 318 316 305 310 300 288 274 271 271 269
352 355 358 356 356 349 344 346 346 350 341 344 344 328 311 316 314 304 278 259 237 233
350 350 347 346 351 356 349 344 342 343 342 336 334 333 337 328 334 333 322 334 274 301
347 348 347 347 347 339 335 342 345 340 335 334 338 337 334 334 329 324 316 325 332 327
344 347 349 347 345 342 342 343 340 335 333 335 337 333 330 332 338 337 334 334 326 328
335 340 343 344 342 340 340 339 338 338 336 339 342 347 350 357 355 356 0 0 9 11
325 334 338 339 337 337 337 338 339 341 345 353 360 3 11 10 7 9 10 13 19 24
319 328 333 336 337 337 338 342 344 349 355 359 2 12 11 12 14 13 7 5 14 13
305 318 327 332 333 334 336 339 343 348 354 360 11 16 10 8 3 1 0 354 351 347
293 308 320 326 330 331 330 330 331 333 339 348 4 23 356 0 355 351 342 333 331 337
286 301 316 324 327 328 324 321 320 321 320 327 336 337 7 347 346 335 337 333 326 318
281 295 309 317 322 320 317 315 316 313 312 314 316 315 322 332 332 336 336 332 326 316
Height
1465 1462 1458 1456 1454 1453 1451 1447 1445 1443 1442 1441 1439 1437 1435 1434 1432 1431 1430 1429 1429 1429
1464 1461 1458 1456 1454 1451 1449 1445 1443 1441 1438 1437 1435 1432 1430 1429 1427 1425 1423 1422 1422 1422
1463 1460 1458 1456 1453 1450 1447 1445 1443 1439 1437 1434 1432 1429 1427 1426 1424 1421 1418 1417 1416 1415
1464 1461 1457 1454 1451 1449 1447 1444 1442 1439 1436 1434 1431 1427 1425 1423 1421 1418 1416 1414 1412 1411
1464 1461 1458 1455 1452 1450 1447 1444 1442 1440 1436 1433 1430 1427 1425 1423 1422 1419 1417 1414 1411 1409
1463 1461 1458 1454 1451 1450 1447 1443 1440 1439 1436 1433 1429 1427 1426 1423 1420 1418 1416 1414 1412 1411
1461 1459 1456 1454 1452 1449 1446 1443 1440 1437 1435 1433 1430 1428 1425 1423 1421 1419 1417 1415 1413 1411
1458 1456 1454 1452 1450 1447 1444 1442 1439 1437 1435 1432 1429 1427 1425 1424 1422 1420 1419 1416 1415 1413
1456 1454 1451 1449 1447 1444 1441 1439 1436 1434 1433 1432 1429 1427 1426 1424 1423 1422 1421 1420 1418 1415
1454 1452 1450 1447 1445 1442 1439 1438 1436 1434 1432 1430 1428 1427 1426 1424 1424 1423 1423 1422 1420 1418
1452 1450 1448 1446 1443 1441 1438 1437 1435 1434 1433 1432 1430 1427 1425 1424 1424 1422 1421 1421 1421 1420
1449 1448 1446 1444 1441 1439 1437 1436 1434 1433 1432 1431 1430 1429 1426 1425 1424 1423 1422 1420 1417 1417
1446 1445 1443 1441 1439 1437 1436 1435 1434 1433 1432 1431 1430 1429 1428 1425 1424 1422 1421 1420 1419 1417
1442 1442 1440 1438 1437 1435 1435 1434 1433 1433 1432 1431 1430 1429 1427 1426 1423 1421 1419 1418 1417 1416